STARLINK-36206

Last updated on Fri Dec 19 2025 00:02:08 GMT+0000 (Coordinated Universal Time)

1 66930U 25286F 25352.58336806 -.01286202 00000+0 -67996-2 0 9994 2 66930 53.1561 21.0574 0000920 71.5911 42.0511 15.82656891 2939
UTC large
Height (km)
Speed (km/s)
/
Latitude / Longitude
Inclination (degrees)
Orbital Period (minutes)
Azimuth
Elevation
Range (km)
Doppler Factor

Next 0 passes for location: London (51.5072 / 0.1276)

Sorry there are no passes over London.